Voltar ao catálogo

SL-12 R/B

AUX MOTOR

AtivoHEO
NORAD 36115·ROCKET BODY·🇷🇺 Russia

Lançado Dec 14, 2009 de Baikonur Cosmodrome

Loading…

Próximas Passagens (próximas 24 horas)

TLE

AtualizadoSource: Space-Track

Época: Sep 13, 2026, 00:58 UTC

1 36115U 09070E   26256.04091282  .00000074  00000-0  22426-3 0  9999
2 36115  65.2563 216.4747 5578618 262.4843  34.2412  4.26804611259739

Acompanhe SL-12 R/B em tempo real com AllMySat

Download on the App Store